| time (UTC) | temp F | wind direction | speed knots | gust knots | rain 1hr in | rain 24hr in | rain mn in | humidity % | barometer mb |
| 20260507015248 | 66 | 311 | 0.9 | 2.6 | 0.00 | 0.00 | 0.00 | 59 | 1015.9 |
| 20260507014744 | 66 | 255 | 1.7 | 2.6 | 0.00 | 0.00 | 0.00 | 59 | 1015.9 |
| 20260507014241 | 66 | 252 | 0.9 | 1.7 | 0.00 | 0.00 | 0.00 | 59 | 1015.9 |
| 20260507013737 | 67 | 228 | 0.0 | 1.7 | 0.00 | 0.00 | 0.00 | 59 | 1015.9 |
| 20260507013235 | 67 | 236 | 2.6 | 2.6 | 0.00 | 0.00 | 0.00 | 59 | 1015.9 |
| 20260507012732 | 67 | 1 | 3.5 | 4.3 | 0.00 | 0.00 | 0.00 | 58 | 1015.7 |
| 20260507012227 | 67 | 1 | 1.7 | 4.3 | 0.00 | 0.00 | 0.00 | 58 | 1015.7 |
| 20260507011725 | 68 | 220 | 1.7 | 4.3 | 0.00 | 0.00 | 0.00 | 58 | 1016.0 |
| 20260507011222 | 68 | 272 | 1.7 | 4.3 | 0.00 | 0.00 | 0.00 | 58 | 1015.8 |
| 20260507010721 | 69 | 265 | 3.5 | 4.3 | 0.00 | 0.00 | 0.00 | 56 | 1016.0 |
| 20260507010217 | 69 | 276 | 0.9 | 4.3 | 0.00 | 0.00 | 0.00 | 56 | 1015.7 |
| 20260507005715 | 69 | 253 | 1.7 | 5.2 | 0.00 | 0.00 | 0.00 | 55 | 1015.8 |
| 20260507005211 | 69 | 261 | 3.5 | 5.2 | 0.00 | 0.00 | 0.00 | 56 | 1015.9 |
| 20260507004708 | 70 | 334 | 0.9 | 5.2 | 0.00 | 0.00 | 0.00 | 55 | 1015.7 |
| 20260507004206 | 69 | 237 | 1.7 | 4.3 | 0.00 | 0.00 | 0.00 | 56 | 1015.9 |
| 20260507003702 | 71 | 344 | 1.7 | 4.3 | 0.00 | 0.00 | 0.00 | 55 | 1015.7 |
| 20260507003157 | 70 | 343 | 3.5 | 4.3 | 0.00 | 0.00 | 0.00 | 56 | 1015.8 |
| 20260507002653 | 70 | 354 | 4.3 | 5.2 | 0.00 | 0.00 | 0.00 | 56 | 1016.0 |
| 20260507002149 | 69 | 199 | 1.7 | 5.2 | 0.00 | 0.00 | 0.00 | 57 | 1015.9 |
| 20260507001646 | 71 | 324 | 4.3 | 8.7 | 0.00 | 0.00 | 0.00 | 56 | 1015.7 |
| 20260507001144 | 71 | 293 | 1.7 | 5.2 | 0.00 | 0.00 | 0.00 | 55 | 1015.9 |
| 20260507000640 | 72 | 272 | 0.9 | 1.7 | 0.00 | 0.00 | 0.00 | 53 | 1015.8 |
| 20260507000135 | 72 | 224 | 2.6 | 4.3 | 0.00 | 0.00 | 0.00 | 53 | 1015.6 |
| 20260506235633 | 73 | 234 | 0.0 | 2.6 | 0.00 | 0.00 | 0.00 | 53 | 1015.8 |
| 20260506235133 | 73 | 242 | 0.0 | 2.6 | 0.00 | 0.00 | 0.00 | 53 | 1015.9 |
| 20260506234631 | 73 | 275 | 1.7 | 2.6 | 0.00 | 0.00 | 0.00 | 53 | 1015.6 |
| 20260506234128 | 72 | 237 | 0.0 | 2.6 | 0.00 | 0.00 | 0.00 | 53 | 1015.6 |
| 20260506233625 | 72 | 251 | 3.5 | 5.2 | 0.00 | 0.00 | 0.00 | 53 | 1015.6 |
| 20260506233122 | 73 | 344 | 2.6 | 7.0 | 0.00 | 0.00 | 0.00 | 54 | 1015.6 |
| 20260506232618 | 73 | 313 | 3.5 | 5.2 | 0.00 | 0.00 | 0.00 | 51 | 1015.6 |
| 20260506232113 | 73 | 271 | 1.7 | 4.3 | 0.00 | 0.00 | 0.00 | 53 | 1015.7 |
| 20260506231611 | 73 | 177 | 3.5 | 5.2 | 0.00 | 0.00 | 0.00 | 53 | 1015.8 |
| 20260506231109 | 72 | 256 | 0.0 | 4.3 | 0.00 | 0.00 | 0.00 | 53 | 1015.7 |
| 20260506230605 | 73 | 290 | 1.7 | 7.0 | 0.00 | 0.00 | 0.00 | 53 | 1015.9 |
| 20260506225559 | 73 | 348 | 1.7 | 2.6 | 0.00 | 0.00 | 0.00 | 51 | 1015.8 |
| 20260506225055 | 74 | 252 | 2.6 | 5.2 | 0.00 | 0.00 | 0.00 | 51 | 1015.8 |
| 20260506224552 | 73 | 230 | 1.7 | 4.3 | 0.00 | 0.00 | 0.00 | 50 | 1016.0 |
| 20260506224049 | 73 | 242 | 4.3 | 7.0 | 0.00 | 0.00 | 0.00 | 51 | 1016.0 |
| 20260506223545 | 73 | 331 | 2.6 | 5.2 | 0.00 | 0.00 | 0.00 | 51 | 1016.0 |
| 20260506223042 | 73 | 294 | 2.6 | 4.3 | 0.00 | 0.00 | 0.00 | 50 | 1016.0 |
| 20260506222538 | 72 | 288 | 2.6 | 4.3 | 0.00 | 0.00 | 0.00 | 51 | 1016.1 |
| 20260506222035 | 73 | 304 | 2.6 | 5.2 | 0.00 | 0.00 | 0.00 | 52 | 1016.2 |
| 20260506221532 | 73 | 154 | 1.7 | 4.3 | 0.00 | 0.00 | 0.00 | 51 | 1016.3 |
| 20260506221030 | 73 | 340 | 1.7 | 5.2 | 0.00 | 0.00 | 0.00 | 51 | 1016.2 |
| 20260506220526 | 73 | 268 | 2.6 | 7.0 | 0.00 | 0.00 | 0.00 | 52 | 1016.4 |
| 20260506220022 | 73 | 255 | 2.6 | 5.2 | 0.00 | 0.00 | 0.00 | 52 | 1016.5 |
| 20260506215519 | 74 | 276 | 4.3 | 7.0 | 0.00 | 0.00 | 0.00 | 50 | 1016.6 |
| 20260506215014 | 73 | 237 | 2.6 | 6.1 | 0.00 | 0.00 | 0.00 | 52 | 1016.6 |
| 20260506214512 | 73 | 359 | 6.1 | 8.7 | 0.00 | 0.00 | 0.00 | 52 | 1016.6 |
| 20260506214009 | 75 | 251 | 1.7 | 2.6 | 0.00 | 0.00 | 0.00 | 50 | 1016.7 |
| 20260506213507 | 72 | 195 | 0.9 | 5.2 | 0.00 | 0.00 | 0.00 | 53 | 1016.6 |
| 20260506213004 | 74 | 21 | 2.6 | 5.2 | 0.00 | 0.00 | 0.00 | 51 | 1016.8 |
| 20260506212500 | 74 | 275 | 0.9 | 4.3 | 0.00 | 0.00 | 0.00 | 52 | 1016.6 |
| 20260506211954 | 75 | 175 | 4.3 | 6.1 | 0.00 | 0.00 | 0.00 | 50 | 1016.8 |
| 20260506211451 | 74 | 298 | 2.6 | 5.2 | 0.00 | 0.00 | 0.00 | 52 | 1016.9 |
| 20260506210948 | 74 | 275 | 1.7 | 5.2 | 0.00 | 0.00 | 0.00 | 52 | 1016.9 |
| 20260506210444 | 74 | 298 | 1.7 | 2.6 | 0.00 | 0.00 | 0.00 | 51 | 1017.0 |
| 20260506205942 | 73 | 288 | 2.6 | 7.0 | 0.00 | 0.00 | 0.00 | 53 | 1016.9 |
| 20260506205438 | 74 | 330 | 3.5 | 7.0 | 0.00 | 0.00 | 0.00 | 52 | 1016.7 |
| 20260506204934 | 74 | 251 | 3.5 | 5.2 | 0.00 | 0.00 | 0.00 | 51 | 1016.8 |
| 20260506204432 | 74 | 332 | 3.5 | 6.1 | 0.00 | 0.00 | 0.00 | 50 | 1017.0 |
| 20260506203929 | 75 | 287 | 1.7 | 7.0 | 0.00 | 0.00 | 0.00 | 51 | 1017.0 |
| 20260506203426 | 75 | 200 | 0.9 | 4.3 | 0.00 | 0.00 | 0.00 | 50 | 1017.0 |
| 20260506202923 | 73 | 184 | 1.7 | 7.0 | 0.00 | 0.00 | 0.00 | 52 | 1017.2 |
| 20260506202420 | 74 | 227 | 1.7 | 5.2 | 0.00 | 0.00 | 0.00 | 50 | 1017.2 |
| 20260506201917 | 75 | 337 | 2.6 | 5.2 | 0.00 | 0.00 | 0.00 | 49 | 1017.1 |
| 20260506201414 | 75 | 336 | 2.6 | 5.2 | 0.00 | 0.00 | 0.00 | 47 | 1017.2 |
| 20260506200911 | 75 | 329 | 2.6 | 4.3 | 0.00 | 0.00 | 0.00 | 49 | 1017.2 |
| 20260506200407 | 75 | 249 | 1.7 | 4.3 | 0.00 | 0.00 | 0.00 | 48 | 1017.2 |
| 20260506195903 | 74 | 238 | 2.6 | 4.3 | 0.00 | 0.00 | 0.00 | 47 | 1017.4 |
| 20260506195401 | 73 | 309 | 4.3 | 6.1 | 0.00 | 0.00 | 0.00 | 48 | 1017.2 |
| 20260506194857 | 75 | 245 | 0.9 | 2.6 | 0.00 | 0.00 | 0.00 | 45 | 1017.4 |
| 20260506194354 | 75 | 274 | 1.7 | 2.6 | 0.00 | 0.00 | 0.00 | 44 | 1017.2 |
| 20260506193852 | 75 | 221 | 0.9 | 5.2 | 0.00 | 0.00 | 0.00 | 47 | 1017.1 |
| 20260506193348 | 74 | 228 | 0.0 | 0.9 | 0.00 | 0.00 | 0.00 | 45 | 1017.5 |
| 20260506192844 | 73 | 271 | 2.6 | 4.3 | 0.00 | 0.00 | 0.00 | 45 | 1017.5 |
| 20260506192341 | 73 | 345 | 0.0 | 2.6 | 0.00 | 0.00 | 0.00 | 46 | 1017.5 |
| 20260506191838 | 73 | 272 | 1.7 | 6.1 | 0.00 | 0.00 | 0.00 | 47 | 1017.6 |
| 20260506191335 | 73 | 225 | 1.7 | 2.6 | 0.00 | 0.00 | 0.00 | 46 | 1017.7 |
| 20260506190832 | 72 | 330 | 5.2 | 7.8 | 0.00 | 0.00 | 0.00 | 47 | 1017.7 |
| 20260506190328 | 72 | 191 | 0.9 | 0.9 | 0.00 | 0.00 | 0.00 | 47 | 1017.7 |
| 20260506185825 | 72 | 261 | 1.7 | 2.6 | 0.00 | 0.00 | 0.00 | 47 | 1017.7 |
| 20260506185322 | 72 | 202 | 1.7 | 7.0 | 0.00 | 0.00 | 0.00 | 47 | 1017.7 |
| 20260506184819 | 72 | 215 | 0.0 | 2.6 | 0.00 | 0.00 | 0.00 | 47 | 1017.8 |
| 20260506184316 | 72 | 270 | 1.7 | 2.6 | 0.00 | 0.00 | 0.00 | 46 | 1017.9 |
| 20260506183814 | 70 | 261 | 0.9 | 2.6 | 0.00 | 0.00 | 0.00 | 48 | 1018.0 |
| 20260506183309 | 70 | 191 | 0.9 | 2.6 | 0.00 | 0.00 | 0.00 | 48 | 1018.0 |
| 20260506182806 | 71 | 203 | 1.7 | 2.6 | 0.00 | 0.00 | 0.00 | 47 | 1018.0 |
| 20260506182306 | 71 | 259 | 1.7 | 1.7 | 0.00 | 0.00 | 0.00 | 47 | 1018.0 |
| 20260506181801 | 70 | 247 | 0.9 | 4.3 | 0.00 | 0.00 | 0.00 | 49 | 1018.1 |
| 20260506181258 | 71 | 327 | 1.7 | 2.6 | 0.00 | 0.00 | 0.00 | 47 | 1018.2 |
| 20260506180755 | 70 | 285 | 0.0 | 1.7 | 0.00 | 0.00 | 0.00 | 49 | 1018.2 |
| 20260506180251 | 69 | 215 | 0.9 | 1.7 | 0.00 | 0.00 | 0.00 | 50 | 1018.4 |
| 20260506175747 | 70 | 329 | 2.6 | 2.6 | 0.00 | 0.00 | 0.00 | 49 | 1018.3 |
| 20260506175244 | 70 | 168 | 0.9 | 2.6 | 0.00 | 0.00 | 0.00 | 52 | 1018.2 |
| 20260506174742 | 69 | 211 | 0.9 | 1.7 | 0.00 | 0.00 | 0.00 | 52 | 1018.2 |
| 20260506174239 | 70 | 324 | 0.9 | 1.7 | 0.00 | 0.00 | 0.00 | 51 | 1018.2 |
| 20260506173737 | 68 | 205 | 0.0 | 2.6 | 0.00 | 0.00 | 0.00 | 53 | 1018.0 |
| 20260506173233 | 68 | 273 | 1.7 | 4.3 | 0.00 | 0.00 | 0.00 | 53 | 1018.1 |
| 20260506172730 | 68 | 341 | 2.6 | 4.3 | 0.00 | 0.00 | 0.00 | 55 | 1018.3 |
| 20260506172227 | 69 | 352 | 2.6 | 2.6 | 0.00 | 0.00 | 0.00 | 52 | 1018.2 |
| 20260506171725 | 68 | 243 | 0.9 | 1.7 | 0.00 | 0.00 | 0.00 | 54 | 1018.3 |
| 20260506171222 | 68 | 272 | 1.7 | 2.6 | 0.00 | 0.00 | 0.00 | 54 | 1018.5 |
| 20260506170719 | 67 | 206 | 0.0 | 5.2 | 0.00 | 0.00 | 0.00 | 57 | 1018.4 |
| 20260506170215 | 68 | 328 | 3.5 | 5.2 | 0.00 | 0.00 | 0.00 | 55 | 1018.2 |
| 20260506165714 | 66 | 208 | 0.0 | 4.3 | 0.00 | 0.00 | 0.00 | 57 | 1018.3 |
| 20260506165211 | 67 | 264 | 2.6 | 2.6 | 0.00 | 0.00 | 0.00 | 53 | 1018.3 |
| 20260506164708 | 67 | 338 | 1.7 | 1.7 | 0.00 | 0.00 | 0.00 | 54 | 1018.3 |
| 20260506164205 | 66 | 290 | 0.9 | 1.7 | 0.00 | 0.00 | 0.00 | 56 | 1018.2 |
| 20260506163701 | 66 | 346 | 3.5 | 4.3 | 0.00 | 0.00 | 0.00 | 56 | 1018.2 |
| 20260506163156 | 64 | 247 | 0.0 | 1.7 | 0.00 | 0.00 | 0.00 | 57 | 1018.2 |
| 20260506162653 | 65 | 335 | 2.6 | 2.6 | 0.00 | 0.00 | 0.00 | 57 | 1018.4 |
| 20260506162150 | 65 | 202 | 0.0 | 0.9 | 0.00 | 0.00 | 0.00 | 56 | 1018.3 |
| 20260506161647 | 65 | 282 | 0.9 | 1.7 | 0.00 | 0.00 | 0.00 | 56 | 1018.3 |
| 20260506161144 | 65 | 208 | 0.0 | 1.7 | 0.00 | 0.00 | 0.00 | 59 | 1018.3 |
| 20260506160642 | 64 | 198 | 0.0 | 0.9 | 0.00 | 0.00 | 0.00 | 60 | 1018.2 |
| 20260506160139 | 64 | 324 | 0.9 | 1.7 | 0.00 | 0.00 | 0.00 | 59 | 1018.2 |
| 20260506155637 | 64 | 204 | 0.0 | 1.7 | 0.00 | 0.00 | 0.00 | 59 | 1018.3 |
| 20260506155133 | 62 | 203 | 0.9 | 0.9 | 0.00 | 0.00 | 0.00 | 63 | 1018.2 |
| 20260506153230 | 62 | 198 | 0.9 | 0.9 | 0.00 | 0.00 | 0.00 | 63 | 1018.3 |
| 20260506152727 | 61 | 222 | 0.9 | 0.9 | 0.00 | 0.00 | 0.00 | 66 | 1018.4 |
| 20260506152224 | 61 | 207 | 0.0 | 0.9 | 0.00 | 0.00 | 0.00 | 66 | 1018.4 |
| 20260506151723 | 61 | 210 | 0.0 | 0.9 | 0.00 | 0.00 | 0.00 | 66 | 1018.4 |
| 20260506151219 | 59 | 207 | 0.0 | 0.9 | 0.00 | 0.00 | 0.00 | 67 | 1018.3 |
| 20260506150716 | 59 | 210 | 0.0 | 1.7 | 0.00 | 0.00 | 0.00 | 69 | 1018.4 |
| 20260506150213 | 58 | 211 | 0.0 | 0.0 | 0.00 | 0.00 | 0.00 | 71 | 1018.4 |
| 20260506145710 | 58 | 175 | 0.9 | 1.7 | 0.00 | 0.00 | 0.00 | 71 | 1018.5 |
| 20260506145206 | 57 | 211 | 0.0 | 0.0 | 0.00 | 0.00 | 0.00 | 74 | 1018.4 |
| 20260506144704 | 56 | 190 | 0.9 | 2.6 | 0.00 | 0.00 | 0.00 | 74 | 1018.3 |
| 20260506144201 | 56 | 151 | 0.9 | 2.6 | 0.00 | 0.00 | 0.00 | 74 | 1018.6 |
| 20260506143658 | 55 | 166 | 1.7 | 2.6 | 0.00 | 0.00 | 0.00 | 74 | 1018.5 |
| 20260506143156 | 55 | 141 | 1.7 | 1.7 | 0.00 | 0.00 | 0.00 | 76 | 1018.4 |
| 20260506142654 | 54 | 159 | 0.9 | 1.7 | 0.00 | 0.00 | 0.00 | 77 | 1018.4 |
| 20260506142152 | 53 | 175 | 0.0 | 1.7 | 0.00 | 0.00 | 0.00 | 80 | 1018.2 |
| 20260506141649 | 52 | 218 | 0.0 | 0.9 | 0.00 | 0.00 | 0.00 | 82 | 1018.3 |
| 20260506141148 | 51 | 218 | 0.0 | 0.0 | 0.00 | 0.00 | 0.00 | 84 | 1018.6 |
| 20260506140645 | 51 | 216 | 0.0 | 0.0 | 0.00 | 0.00 | 0.00 | 84 | 1018.3 |
| 20260506140142 | 51 | 203 | 0.0 | 0.9 | 0.00 | 0.00 | 0.00 | 85 | 1018.2 |
| 20260506135639 | 50 | 187 | 0.9 | 1.7 | 0.00 | 0.00 | 0.00 | 85 | 1018.0 |
| 20260506135135 | 49 | 195 | 0.0 | 0.9 | 0.00 | 0.00 | 0.00 | 87 | 1018.1 |
| 20260506134632 | 49 | 226 | 0.0 | 0.0 | 0.00 | 0.00 | 0.00 | 90 | 1018.3 |
| 20260506134127 | 49 | 225 | 0.0 | 0.0 | 0.00 | 0.00 | 0.00 | 90 | 1018.3 |
| 20260506133625 | 48 | 226 | 0.0 | 0.0 | 0.00 | 0.00 | 0.00 | 90 | 1018.4 |
| 20260506133122 | 47 | 227 | 0.0 | 0.0 | 0.00 | 0.00 | 0.00 | 90 | 1018.1 |
| 20260506132619 | 47 | 227 | 0.0 | 0.0 | 0.00 | 0.00 | 0.00 | 90 | 1018.0 |
| 20260506132116 | 47 | 226 | 0.0 | 0.0 | 0.00 | 0.00 | 0.00 | 90 | 1018.0 |
| 20260506131613 | 47 | 227 | 0.0 | 0.0 | 0.00 | 0.00 | 0.00 | 90 | 1018.2 |
| 20260506131109 | 47 | 226 | 0.0 | 0.0 | 0.00 | 0.00 | 0.00 | 90 | 1018.1 |
| 20260506130607 | 47 | 219 | 0.0 | 0.0 | 0.00 | 0.00 | 0.00 | 90 | 1018.2 |
| 20260506130104 | 47 | 226 | 0.0 | 0.0 | 0.00 | 0.00 | 0.00 | 90 | 1017.9 |
| 20260506125602 | 47 | 231 | 0.0 | 0.0 | 0.00 | 0.00 | 0.00 | 90 | 1017.9 |
| 20260506125100 | 47 | 226 | 0.0 | 0.0 | 0.00 | 0.00 | 0.00 | 90 | 1017.9 |
| 20260506124557 | 47 | 224 | 0.0 | 0.0 | 0.00 | 0.00 | 0.00 | 90 | 1017.8 |
| 20260506124055 | 47 | 228 | 0.0 | 0.0 | 0.00 | 0.00 | 0.00 | 90 | 1017.6 |
| 20260506123552 | 47 | 227 | 0.0 | 0.0 | 0.00 | 0.00 | 0.00 | 90 | 1017.7 |
| 20260506123051 | 47 | 221 | 0.0 | 0.0 | 0.00 | 0.00 | 0.00 | 90 | 1017.6 |
| 20260506122547 | 47 | 221 | 0.0 | 0.0 | 0.00 | 0.00 | 0.00 | 90 | 1017.6 |
| 20260506122045 | 47 | 222 | 0.0 | 0.0 | 0.00 | 0.00 | 0.00 | 90 | 1017.5 |
| 20260506121542 | 48 | 221 | 0.0 | 0.0 | 0.00 | 0.00 | 0.00 | 90 | 1017.6 |
| 20260506121038 | 47 | 227 | 0.0 | 0.0 | 0.00 | 0.00 | 0.00 | 90 | 1017.5 |
| 20260506120537 | 47 | 227 | 0.0 | 0.0 | 0.00 | 0.00 | 0.00 | 90 | 1017.7 |
| 20260506120034 | 48 | 226 | 0.0 | 0.0 | 0.00 | 0.00 | 0.00 | 90 | 1017.5 |
| 20260506115532 | 47 | 231 | 0.0 | 0.0 | 0.00 | 0.00 | 0.00 | 90 | 1017.4 |
| 20260506115030 | 48 | 221 | 0.0 | 0.0 | 0.00 | 0.00 | 0.00 | 90 | 1017.4 |
| 20260506114527 | 48 | 220 | 0.0 | 0.0 | 0.00 | 0.00 | 0.00 | 90 | 1017.6 |
| 20260506114025 | 48 | 220 | 0.0 | 0.0 | 0.00 | 0.00 | 0.00 | 90 | 1017.6 |
| 20260506113523 | 48 | 221 | 0.0 | 0.0 | 0.00 | 0.00 | 0.00 | 90 | 1017.2 |
| 20260506113020 | 48 | 221 | 0.0 | 0.0 | 0.00 | 0.00 | 0.00 | 90 | 1017.4 |
| 20260506112516 | 48 | 226 | 0.0 | 0.0 | 0.00 | 0.00 | 0.00 | 90 | 1017.4 |
| 20260506112014 | 48 | 220 | 0.0 | 0.0 | 0.00 | 0.00 | 0.00 | 90 | 1017.4 |
| 20260506111512 | 48 | 221 | 0.0 | 0.0 | 0.00 | 0.00 | 0.00 | 90 | 1017.2 |
| 20260506111008 | 48 | 220 | 0.0 | 0.0 | 0.00 | 0.00 | 0.00 | 90 | 1017.1 |
| 20260506110507 | 48 | 221 | 0.0 | 0.0 | 0.00 | 0.00 | 0.00 | 90 | 1017.4 |
| 20260506110003 | 48 | 226 | 0.0 | 0.0 | 0.00 | 0.00 | 0.00 | 89 | 1017.4 |
| 20260506105459 | 48 | 226 | 0.0 | 0.0 | 0.00 | 0.00 | 0.00 | 89 | 1017.2 |
| 20260506104956 | 49 | 220 | 0.0 | 0.9 | 0.00 | 0.00 | 0.00 | 89 | 1017.4 |
| 20260506104454 | 48 | 221 | 0.0 | 0.0 | 0.00 | 0.00 | 0.00 | 89 | 1017.1 |
| 20260506103952 | 48 | 220 | 0.0 | 0.0 | 0.00 | 0.00 | 0.00 | 90 | 1017.1 |
| 20260506103449 | 48 | 228 | 0.0 | 0.0 | 0.00 | 0.00 | 0.00 | 89 | 1017.1 |
| 20260506102946 | 48 | 245 | 0.0 | 0.0 | 0.00 | 0.00 | 0.00 | 89 | 1017.5 |
| 20260506102444 | 48 | 221 | 0.0 | 0.0 | 0.00 | 0.00 | 0.00 | 89 | 1017.1 |
| 20260506101941 | 49 | 221 | 0.0 | 0.0 | 0.00 | 0.00 | 0.00 | 89 | 1017.0 |
| 20260506101438 | 49 | 221 | 0.0 | 0.0 | 0.00 | 0.00 | 0.00 | 89 | 1017.1 |
| 20260506100935 | 49 | 220 | 0.0 | 0.0 | 0.00 | 0.00 | 0.00 | 89 | 1017.5 |
| 20260506100433 | 49 | 221 | 0.0 | 0.0 | 0.00 | 0.00 | 0.00 | 89 | 1017.4 |
| 20260506095931 | 49 | 226 | 0.0 | 0.0 | 0.00 | 0.00 | 0.00 | 88 | 1017.7 |
| 20260506095429 | 49 | 226 | 0.0 | 0.0 | 0.00 | 0.00 | 0.00 | 88 | 1017.7 |
| 20260506094925 | 49 | 221 | 0.0 | 0.0 | 0.00 | 0.00 | 0.00 | 88 | 1017.6 |
| 20260506094424 | 49 | 224 | 0.0 | 0.0 | 0.00 | 0.00 | 0.00 | 88 | 1017.5 |
| 20260506093921 | 50 | 221 | 0.0 | 0.0 | 0.00 | 0.00 | 0.00 | 88 | 1017.4 |
| 20260506093419 | 49 | 220 | 0.0 | 0.0 | 0.00 | 0.00 | 0.00 | 88 | 1017.4 |
| 20260506092916 | 50 | 220 | 0.0 | 0.0 | 0.00 | 0.00 | 0.00 | 88 | 1017.5 |
| 20260506092414 | 49 | 220 | 0.0 | 0.0 | 0.00 | 0.00 | 0.00 | 88 | 1017.6 |
| 20260506091910 | 50 | 227 | 0.0 | 0.0 | 0.00 | 0.00 | 0.00 | 87 | 1017.7 |
| 20260506091409 | 50 | 224 | 0.0 | 0.0 | 0.00 | 0.00 | 0.00 | 88 | 1017.4 |
| 20260506090905 | 50 | 220 | 0.0 | 0.0 | 0.00 | 0.00 | 0.00 | 88 | 1017.5 |
| 20260506090403 | 50 | 226 | 0.0 | 0.0 | 0.00 | 0.00 | 0.00 | 87 | 1017.4 |
| 20260506085859 | 50 | 226 | 0.0 | 0.0 | 0.00 | 0.00 | 0.00 | 87 | 1017.8 |
| 20260506085356 | 50 | 229 | 0.0 | 0.0 | 0.00 | 0.00 | 0.00 | 86 | 1017.6 |
| 20260506084852 | 50 | 221 | 0.0 | 0.0 | 0.00 | 0.00 | 0.00 | 86 | 1017.6 |
| 20260506084349 | 50 | 224 | 0.0 | 0.0 | 0.00 | 0.00 | 0.00 | 86 | 1017.8 |
| 20260506083846 | 50 | 218 | 0.0 | 0.9 | 0.00 | 0.00 | 0.00 | 86 | 1017.7 |
| 20260506083344 | 51 | 221 | 0.0 | 0.9 | 0.00 | 0.00 | 0.00 | 86 | 1017.6 |
| 20260506082841 | 51 | 221 | 0.0 | 0.0 | 0.00 | 0.00 | 0.00 | 86 | 1017.6 |
| 20260506082337 | 51 | 221 | 0.0 | 0.0 | 0.00 | 0.00 | 0.00 | 85 | 1017.6 |
| 20260506081833 | 51 | 224 | 0.0 | 0.0 | 0.00 | 0.00 | 0.00 | 86 | 1017.9 |
| 20260506081331 | 51 | 219 | 0.0 | 0.0 | 0.00 | 0.00 | 0.00 | 85 | 1017.9 |
| 20260506080829 | 51 | 221 | 0.0 | 0.0 | 0.00 | 0.00 | 0.00 | 85 | 1017.9 |
| 20260506080325 | 51 | 221 | 0.0 | 0.0 | 0.00 | 0.00 | 0.00 | 85 | 1018.1 |
| 20260506073309 | 52 | 220 | 0.0 | 0.0 | 0.00 | 0.00 | 0.00 | 85 | 1017.9 |
| 20260506072806 | 52 | 221 | 0.0 | 0.0 | 0.00 | 0.00 | 0.00 | 85 | 1017.8 |
| 20260506072305 | 52 | 200 | 0.0 | 0.0 | 0.00 | 0.00 | 0.00 | 84 | 1017.8 |
| 20260506071801 | 52 | 197 | 0.9 | 0.9 | 0.00 | 0.00 | 0.00 | 84 | 1017.9 |
| 20260506071259 | 52 | 221 | 0.0 | 0.0 | 0.00 | 0.00 | 0.00 | 84 | 1017.8 |
| 20260506070756 | 52 | 221 | 0.0 | 0.9 | 0.00 | 0.00 | 0.00 | 84 | 1017.6 |
| 20260506070253 | 52 | 221 | 0.0 | 0.0 | 0.00 | 0.00 | 0.00 | 84 | 1017.7 |
| 20260506062230 | 53 | 210 | 0.0 | 0.9 | 0.00 | 0.00 | 0.00 | 83 | 1017.1 |
| 20260506061726 | 53 | 217 | 0.0 | 0.9 | 0.00 | 0.00 | 0.00 | 83 | 1017.1 |
| 20260506061223 | 53 | 208 | 0.9 | 0.9 | 0.00 | 0.00 | 0.00 | 82 | 1017.0 |
| 20260506060722 | 53 | 217 | 0.0 | 0.0 | 0.00 | 0.00 | 0.00 | 83 | 1016.9 |
| 20260506060218 | 53 | 219 | 0.0 | 0.0 | 0.00 | 0.00 | 0.00 | 82 | 1016.9 |
| 20260506051151 | 55 | 191 | 0.0 | 0.9 | 0.00 | 0.00 | 0.00 | 78 | 1016.5 |
| 20260506050649 | 55 | 224 | 0.0 | 0.0 | 0.00 | 0.00 | 0.00 | 79 | 1016.4 |
| 20260506050146 | 56 | 236 | 0.0 | 1.7 | 0.00 | 0.00 | 0.00 | 79 | 1016.6 |
| 20260506044637 | 56 | 248 | 0.0 | 0.9 | 0.00 | 0.00 | 0.00 | 76 | 1016.4 |
| 20260506044133 | 56 | 243 | 0.0 | 0.9 | 0.00 | 0.00 | 0.00 | 76 | 1016.2 |
| 20260506043631 | 56 | 233 | 0.0 | 0.0 | 0.00 | 0.00 | 0.00 | 76 | 1016.3 |
| 20260506043129 | 56 | 240 | 0.0 | 0.0 | 0.00 | 0.00 | 0.00 | 76 | 1015.8 |
| 20260506042627 | 57 | 215 | 0.0 | 0.9 | 0.00 | 0.00 | 0.00 | 75 | 1015.9 |
| 20260506042125 | 56 | 214 | 0.0 | 0.0 | 0.00 | 0.00 | 0.00 | 77 | 1016.0 |
| 20260506041624 | 57 | 221 | 0.0 | 0.0 | 0.00 | 0.00 | 0.00 | 76 | 1015.7 |
| 20260506041120 | 57 | 222 | 0.0 | 0.0 | 0.00 | 0.00 | 0.00 | 75 | 1015.7 |
| 20260506040618 | 57 | 223 | 0.0 | 0.0 | 0.00 | 0.00 | 0.00 | 75 | 1015.8 |
| 20260506040114 | 58 | 222 | 0.0 | 0.0 | 0.00 | 0.00 | 0.00 | 75 | 1015.6 |
| 20260506035611 | 58 | 222 | 0.0 | 0.0 | 0.00 | 0.00 | 0.00 | 74 | 1015.5 |
| 20260506035107 | 58 | 223 | 0.0 | 0.0 | 0.00 | 0.00 | 0.00 | 73 | 1015.6 |
| 20260506034605 | 58 | 223 | 0.0 | 0.0 | 0.00 | 0.00 | 0.00 | 73 | 1015.3 |
| 20260506034102 | 58 | 222 | 0.0 | 0.0 | 0.00 | 0.00 | 0.00 | 72 | 1015.4 |
| 20260506033559 | 59 | 215 | 0.0 | 0.9 | 0.00 | 0.00 | 0.00 | 71 | 1015.3 |
| 20260506033056 | 59 | 215 | 0.0 | 0.9 | 0.00 | 0.00 | 0.00 | 71 | 1015.2 |
| 20260506032553 | 59 | 223 | 0.0 | 0.9 | 0.00 | 0.00 | 0.00 | 72 | 1015.3 |
| 20260506032050 | 59 | 233 | 0.0 | 0.0 | 0.00 | 0.00 | 0.00 | 71 | 1015.1 |
| 20260506031548 | 59 | 233 | 0.0 | 0.9 | 0.00 | 0.00 | 0.00 | 71 | 1015.0 |
| 20260506031044 | 59 | 242 | 0.9 | 0.9 | 0.00 | 0.00 | 0.00 | 70 | 1015.2 |
| 20260506030542 | 59 | 227 | 0.0 | 0.9 | 0.00 | 0.00 | 0.00 | 70 | 1014.9 |
| 20260506030039 | 59 | 216 | 0.0 | 0.9 | 0.00 | 0.00 | 0.00 | 70 | 1014.7 |
| 20260506025536 | 59 | 193 | 0.9 | 0.9 | 0.00 | 0.00 | 0.00 | 70 | 1014.7 |
| 20260506025032 | 59 | 210 | 0.0 | 0.0 | 0.00 | 0.00 | 0.00 | 70 | 1014.7 |
| 20260506024530 | 60 | 216 | 0.0 | 0.9 | 0.00 | 0.00 | 0.00 | 70 | 1014.5 |
| 20260506024026 | 60 | 223 | 0.0 | 0.0 | 0.00 | 0.00 | 0.00 | 70 | 1014.5 |
| 20260506023522 | 60 | 238 | 0.0 | 1.7 | 0.00 | 0.00 | 0.00 | 69 | 1014.3 |
| 20260506023020 | 60 | 205 | 0.9 | 1.7 | 0.00 | 0.00 | 0.00 | 70 | 1014.5 |
| 20260506022517 | 60 | 278 | 0.9 | 0.9 | 0.00 | 0.00 | 0.00 | 69 | 1014.5 |
| 20260506022014 | 60 | 215 | 0.0 | 0.9 | 0.00 | 0.00 | 0.00 | 69 | 1014.4 |
| 20260506021512 | 60 | 205 | 0.9 | 1.7 | 0.00 | 0.00 | 0.00 | 68 | 1014.2 |
| 20260506021009 | 60 | 230 | 0.0 | 0.9 | 0.00 | 0.00 | 0.00 | 68 | 1014.3 |
| 20260506020506 | 61 | 226 | 0.0 | 0.9 | 0.00 | 0.00 | 0.00 | 68 | 1014.1 |
| 20260506020004 | 61 | 213 | 0.0 | 1.7 | 0.00 | 0.00 | 0.00 | 67 | 1014.2 |